Date String (YYYY-MM-DD hh:mm:ss) UTC,Instrument flags,Ambient pressure (hPa),Sample flow (lpm),Bypass flow (lpm),Sample temperature (°C),Ambient temperature (°C),ASC tube jacket temperature (°C),LED temperature (°C),Box temperature (°C),Sample RH (%),Span deviation,Mass concentration (μg/m³),Mass concentration (μg/m³),Mass concentration (μg/m³)
DateTimeUTC,F1_M11,P_M11,Q1_M11,Q2_M11,T1_M11,T2_M11,T3_M11,T4_M11,T5_M11,U1_M11,ZSPAN_M11,X0_M11,X2_M11,X1_M11
2022-05-26 11:00:00,,0826.8,5.01,0.00,28.4,27.3,00.0,37.4,30.2,15.0,0000.0,0008.03,0003.18,0002.49
2022-05-26 11:01:00,,0826.8,4.99,0.00,28.4,27.3,00.0,37.4,30.2,14.9,0000.0,0008.03,0003.19,0002.50
2022-05-26 11:02:00,,0826.8,5.00,0.00,28.4,27.3,00.0,37.4,30.3,14.8,0000.0,0008.67,0003.21,0002.51
2022-05-26 11:03:00,,0826.8,5.01,0.00,28.4,27.3,00.0,37.4,30.3,14.8,0000.0,0008.75,0003.22,0002.49
2022-05-26 11:04:00,,0827.0,5.01,0.00,28.4,27.3,00.0,37.4,30.3,14.9,0000.0,0008.64,0003.24,0002.50
2022-05-26 11:05:00,,0826.9,4.99,0.00,28.4,27.3,00.0,37.4,30.3,15.1,0000.0,0009.00,0003.28,0002.53
2022-05-26 11:06:00,,0826.9,4.99,0.00,28.4,27.3,00.0,37.4,30.3,15.3,0000.0,0009.30,0003.33,0002.56
2022-05-26 11:07:00,,0826.9,5.01,0.00,28.4,27.3,00.0,37.4,30.3,15.3,0000.0,0009.28,0003.35,0002.59
2022-05-26 11:08:00,,0826.9,5.00,0.00,28.4,27.4,00.0,37.4,30.3,15.3,0000.0,0009.59,0003.36,0002.62
2022-05-26 11:09:00,,0826.9,5.00,0.00,28.4,27.4,00.0,37.4,30.3,15.4,0000.0,0009.56,0003.40,0002.66
2022-05-26 11:10:00,,0826.9,4.98,0.00,28.5,27.4,00.0,37.4,30.3,15.5,0000.0,0009.43,0003.41,0002.71
2022-05-26 11:11:00,,0827.0,5.00,0.00,28.5,27.4,00.0,37.4,30.3,15.5,0000.0,0010.51,0003.43,0002.74
2022-05-26 11:12:00,,0827.0,5.00,0.00,28.5,27.4,00.0,37.4,30.3,15.5,0000.0,0010.84,0003.44,0002.76
2022-05-26 11:13:00,,0827.0,5.00,0.00,28.5,27.4,00.0,37.4,30.3,15.3,0000.0,0010.63,0003.48,0002.79
2022-05-26 11:14:00,,0827.0,5.00,0.00,28.5,27.4,00.0,37.4,30.3,15.3,0000.0,0010.40,0003.51,0002.83
2022-05-26 11:15:00,,0827.0,5.00,0.00,28.5,27.4,00.0,37.4,30.4,15.3,0000.0,0010.28,0003.55,0002.88
2022-05-26 11:16:00,,0827.0,5.00,0.00,28.5,27.4,00.0,37.4,30.3,15.4,0000.0,0010.27,0003.60,0002.90
2022-05-26 11:17:00,,0827.0,5.00,0.00,28.5,27.4,00.0,37.4,30.3,15.2,0000.0,0010.67,0003.63,0002.93
2022-05-26 11:18:00,,0827.0,5.01,0.00,28.5,27.4,00.0,37.4,30.4,15.1,0000.0,0010.19,0003.66,0002.94
2022-05-26 11:19:00,,0827.0,4.99,0.00,28.5,27.4,00.0,37.4,30.3,15.0,0000.0,0009.92,0003.69,0002.93
2022-05-26 11:20:00,,0827.0,5.01,0.00,28.5,27.4,00.0,37.4,30.4,14.9,0000.0,0009.96,0003.72,0002.92
2022-05-26 11:21:00,,0827.0,5.00,0.00,28.5,27.4,00.0,37.4,30.3,14.9,0000.0,0010.32,0003.76,0002.91
2022-05-26 11:22:00,,0827.0,4.99,0.00,28.5,27.5,00.0,37.4,30.4,14.9,0000.0,0009.45,0003.79,0002.90
2022-05-26 11:23:00,,0827.0,5.00,0.00,28.5,27.4,00.0,37.4,30.3,14.9,0000.0,0009.07,0003.80,0002.90
2022-05-26 11:24:00,,0827.0,5.00,0.00,28.5,27.4,00.0,37.4,30.4,14.8,0000.0,0009.02,0003.80,0002.87
2022-05-26 11:25:00,,0827.0,5.01,0.00,28.5,27.4,00.0,37.4,30.3,14.8,0000.0,0009.50,0003.77,0002.85
2022-05-26 11:26:00,,0827.0,5.00,0.00,28.5,27.4,00.0,37.4,30.4,14.8,0000.0,0009.59,0003.72,0002.82
2022-05-26 11:27:00,,0827.0,5.00,0.00,28.5,27.5,00.0,37.4,30.4,14.8,0000.0,0009.50,0003.68,0002.80
2022-05-26 11:28:00,,0827.0,5.00,0.00,28.5,27.5,00.0,37.4,30.4,14.8,0000.0,0008.85,0003.64,0002.76
2022-05-26 11:29:00,,0827.0,4.98,0.00,28.5,27.4,00.0,37.4,30.4,14.7,0000.0,0008.96,0003.63,0002.73
2022-05-26 11:30:00,,0827.0,5.00,0.00,28.5,27.4,00.0,37.4,30.4,14.7,0000.0,0008.88,0003.60,0002.73
2022-05-26 11:31:00,,0827.1,5.01,0.00,28.5,27.4,00.0,37.4,30.4,14.7,0000.0,0008.60,0003.52,0002.72
2022-05-26 11:32:00,,0827.1,5.01,0.00,28.5,27.4,00.0,37.4,30.4,14.7,0000.0,0008.59,0003.48,0002.70
2022-05-26 11:33:00,,0827.1,4.99,0.00,28.5,27.4,00.0,37.4,30.4,14.5,0000.0,0008.19,0003.41,0002.68
2022-05-26 11:34:00,,0827.1,5.01,0.00,28.5,27.4,00.0,37.4,30.4,14.6,0000.0,0008.20,0003.40,0002.66
2022-05-26 11:35:00,,0827.1,5.00,0.00,28.5,27.4,00.0,37.4,30.4,14.6,0000.0,0008.22,0003.38,0002.67
2022-05-26 11:36:00,,0827.1,5.00,0.00,28.5,27.4,00.0,37.4,30.4,14.6,0000.0,0007.72,0003.40,0002.67
2022-05-26 11:37:00,,0827.1,5.00,0.00,28.5,27.4,00.0,37.4,30.3,14.7,0000.0,0007.43,0003.41,0002.66
2022-05-26 11:38:00,,0827.1,5.00,0.00,28.5,27.4,00.0,37.4,30.3,14.5,0000.0,0007.50,0003.41,0002.65
2022-05-26 11:39:00,,0827.1,5.00,0.00,28.5,27.4,00.0,37.4,30.3,14.6,0000.0,0007.47,0003.37,0002.65
2022-05-26 11:40:00,,0827.1,5.00,0.00,28.5,27.4,00.0,37.4,30.3,14.5,0000.0,0007.20,0003.34,0002.65
2022-05-26 11:41:00,,0827.1,4.99,0.00,28.5,27.3,00.0,37.4,30.3,14.5,0000.0,0007.38,0003.29,0002.63
2022-05-26 11:42:00,,0827.1,5.00,0.00,28.5,27.3,00.0,37.4,30.3,14.3,0000.0,0007.38,0003.28,0002.62
2022-05-26 11:43:00,,0827.1,5.00,0.00,28.5,27.3,00.0,37.4,30.3,14.5,0000.0,0006.74,0003.26,0002.62
2022-05-26 11:44:00,,0827.1,5.00,0.00,28.5,27.3,00.0,37.4,30.3,14.4,0000.0,0006.52,0003.23,0002.61
2022-05-26 11:45:00,,0827.1,5.00,0.00,28.5,27.2,00.0,37.4,30.3,14.4,0000.0,0006.58,0003.23,0002.61
2022-05-26 11:46:00,,0827.2,5.00,0.00,28.4,27.2,00.0,37.4,30.3,14.3,0000.0,0006.38,0003.21,0002.59
2022-05-26 11:47:00,,0827.2,5.00,0.00,28.4,27.2,00.0,37.4,30.3,14.4,0000.0,0006.03,0003.14,0002.57
2022-05-26 11:48:00,,0827.2,4.99,0.00,28.4,27.2,00.0,37.4,30.2,14.4,0000.0,0006.03,0003.14,0002.56
2022-05-26 11:49:00,,0827.5,5.01,0.00,28.4,27.2,00.0,37.4,30.2,14.4,0000.0,0005.85,0003.14,0002.55
2022-05-26 11:50:00,,0827.7,5.00,0.00,28.4,27.2,00.0,37.4,30.2,14.5,0000.0,0005.48,0003.14,0002.57
2022-05-26 11:51:00,,0827.5,5.00,0.00,28.4,27.2,00.0,37.4,30.2,14.5,0000.0,0005.19,0003.13,0002.57
2022-05-26 11:52:00,,0827.7,4.99,0.00,28.4,27.2,00.0,37.4,30.2,14.5,0000.0,0004.78,0003.15,0002.59
2022-05-26 11:53:00,,0827.4,5.00,0.00,28.4,27.1,00.0,37.4,30.2,14.5,0000.0,0005.53,0003.17,0002.59
2022-05-26 11:54:00,,0827.2,4.99,0.00,28.4,27.1,00.0,37.4,30.2,14.4,0000.0,0005.69,0003.19,0002.59
2022-05-26 11:55:00,,0827.2,4.99,0.00,28.4,27.1,00.0,37.4,30.2,14.5,0000.0,0005.82,0003.22,0002.61
2022-05-26 11:56:00,,0827.2,4.99,0.00,28.4,27.1,00.0,37.3,30.2,14.5,0000.0,0005.60,0003.20,0002.61
2022-05-26 11:57:00,,0827.2,5.00,0.00,28.4,27.1,00.0,37.3,30.2,14.5,0000.0,0005.70,0003.19,0002.62
2022-05-26 11:58:00,,0827.3,5.01,0.00,28.4,27.1,00.0,37.3,30.2,14.5,0000.0,0006.02,0003.22,0002.65
2022-05-26 11:59:00,,0827.3,5.00,0.00,28.3,27.1,00.0,37.3,30.2,14.5,0000.0,0006.03,0003.23,0002.67
